Weather in Nakhon Ratchasima

Thailand     14°58′27″N   102°06′18″E
temp.,
°C
wind,
m/s
gust,
m/s
humid.,
%
clouds,
%
prec.,
mm/h
press.,
hPa
HPBL,
m
15 april, thu
thu1501:00+27w2464100 0.1 1010120
04:00+26wnw3675100 0.0 1008215
07:00+26wsw3674100 0.0 1010263
10:00+31wsw3348100 0.0 1011981
13:00+35wsw3337100 0.0 10081907
16:00+35ssw233528 0.0 10052267
19:00+32s344516 0.0 100666
22:00+30s36538 0.0 1008129
16 april, fri
fri1601:00+29sw35598 0.0 1007105
04:00+27w236637 0.0 100757
07:00+27wsw116985 0.0 1009136
10:00+32ssw1149100 0.0 1011980
13:00+35ssw223984 0.0 10082227
16:00+36s333578 0.1 10042258
19:00+30wsw4757100 0.1 1007309
22:00+29w2360100 0.6 1010196
17 april, sat
sat1701:00+27nw2468100 1.9 1010183
04:00+26n117283 0.6 100934
07:00+27nne237399 0.7 1012298
10:00+30ene336095 0.1 10131135
13:00+34sse224380 0.3 10092153
16:00+32e334798 0.4 10081129
19:00+30e235911 0.4 100970
22:00+28s23643 0.2 1012109
18 april, sun
sun1801:00+26sw3675100 5.8 1011161
04:00+25nw5882100 3.0 1011323
07:00+25wnw2383100 3.4 1012175
10:00+29ne116488 1.0 1013776
13:00+32ssw115087 1.0 10101805
16:00+31nne325365 0.3 10081280
19:00+29nnw1267100 2.4 100967
22:00+27ne2476100 3.1 1011114
19 april, mon
mon1901:00+26ese2481100 4.6 1009159
04:00+23sse229028 3.7 100966
07:00+25ese128377 4.3 1010183
10:00+29ese336542 3.3 1011634
13:00+31sse325628 6.2 10081433
16:00+31ssw3354100 0.6 10061412
19:00+25w5882100 4.4 1008350
22:00+25sw0184100 0.4 1009148